Theta_e
319 318 318 319 319 319 318 316 313 307 306 305 305 302 297 298 296 295 294 295 298 300 300 301 303 305 306 306 306 307 307 307 306 306 305 305 305 305
320 319 319 320 320 319 319 317 315 313 309 308 304 300 298 297 296 295 295 294 295 296 297 299 300 302 303 304 304 305 306 306 305 304 305 305 304 304
321 320 319 320 319 318 317 316 315 314 311 305 300 299 297 296 294 293 292 292 291 293 295 297 298 299 300 301 301 302 301 301 301 301 302 302 302 302
320 318 318 318 317 318 316 314 314 312 311 307 297 295 296 295 294 291 291 291 288 292 294 295 296 296 297 298 298 298 298 298 298 298 299 299 299 300
319 317 318 316 314 314 312 312 309 301 303 298 295 293 292 291 289 288 288 286 289 291 293 294 294 295 295 296 296 295 295 295 295 295 296 296 296 297
318 317 316 315 314 311 308 307 302 299 295 291 288 289 288 287 287 286 285 284 285 287 290 290 291 292 293 294 294 293 292 293 293 293 293 293 293 294
314 314 314 308 301 305 305 302 299 294 289 289 287 286 286 285 286 285 285 284 282 279 280 282 284 283 284 288 288 290 292 292 292 292 291 291 292 292
311 305 302 292 296 297 298 298 300 296 291 289 287 287 287 287 285 285 285 283 278 280 279 279 281 279 281 283 289 291 291 290 290 290 290 290 290 289
305 300 295 294 293 295 295 295 295 296 295 293 288 288 287 287 286 284 283 280 284 284 278 275 278 278 280 283 290 289 289 289 289 289 289 289 288 288
300 299 297 292 292 292 291 289 289 290 292 292 292 289 289 287 287 285 283 281 282 280 278 275 276 276 278 278 289 288 288 288 288 288 288 288 287 286
296 296 296 292 291 292 289 287 286 286 291 291 291 291 290 289 286 284 279 275 272 277 280 277 276 275 275 276 280 287 287 287 287 287 287 287 285 284
289 290 288 292 291 292 289 287 286 285 285 285 287 289 289 288 288 284 280 275 272 274 282 275 275 274 273 275 276 276 277 285 286 286 286 285 285 277
289 287 288 291 292 292 291 288 288 286 287 284 284 284 285 284 284 282 281 278 275 274 279 277 276 273 272 273 273 272 272 274 276 278 284 283 283 281
288 287 287 291 292 292 289 290 289 286 284 283 282 282 282 282 283 281 281 282 280 277 280 282 280 279 278 276 274 274 277 275 278 276 275 280 281 281
287 287 289 291 291 290 289 290 286 285 283 282 281 281 282 283 282 282 282 282 281 282 283 282 281 280 279 277 273 271 273 273 274 273 273 273 273 274
287 287 289 289 289 287 287 287 285 285 284 283 282 281 282 282 281 282 280 280 276 275 278 280 279 278 278 276 271 267 270 272 273 271 272 271 274 274
286 286 286 285 285 285 285 284 284 284 283 282 281 281 281 281 280 280 279 272 271 273 273 274 275 277 278 273 271 268 269 269 271 271 268 268 271 272
286 285 284 283 283 283 282 282 282 282 283 282 282 281 280 279 278 274 273 271 271 270 271 271 270 269 269 269 276 269 267 268 270 270 268 264 269 271
286 284 283 282 282 282 282 282 281 281 281 281 280 279 278 277 275 274 274 274 269 269 268 268 267 266 261 262 267 276 267 268 269 265 267 265 267 270
286 283 282 282 282 281 281 281 279 279 279 278 277 276 276 276 274 274 274 271 267 266 264 264 266 265 263 262 261 266 276 268 265 263 265 266 270 275
284 283 283 283 282 282 281 279 279 278 277 276 275 274 273 273 272 271 271 269 268 264 262 264 268 268 263 260 261 261 266 274 271 266 266 265 263 263
284 283 283 282 281 279 278 277 275 274 273 273 272 271 271 271 270 269 268 267 266 265 265 265 264 260 258 261 258 258 261 262 268 273 273 271 263 263
281 279 278 277 276 275 274 273 273 272 272 271 270 269 268 268 268 268 266 265 264 263 262 262 261 258 258 259 257 258 257 257 260 262 263 272 273 273
Wind_Speed
14 13 12 10 9 11 10 10 10 7 5 4 5 3 3 4 4 3 4 7 9 9 12 13 14 17 16 16 17 17 17 17 18 19 19 21 22 23
11 14 14 12 12 10 10 10 9 11 9 5 6 3 3 3 4 4 3 4 5 6 8 11 11 13 14 15 15 16 17 17 18 19 20 21 23 24
15 15 17 16 11 9 8 9 9 9 11 3 2 3 4 4 3 2 1 2 2 5 7 10 10 12 12 13 14 15 16 17 19 21 21 22 24 24
17 15 17 11 14 13 9 11 10 7 8 10 4 3 3 1 3 2 2 3 3 4 5 7 8 9 11 11 14 15 16 17 19 21 21 23 24 26
15 15 16 14 13 10 10 9 7 4 5 4 4 2 2 2 2 1 1 3 2 5 6 6 9 9 9 10 11 12 13 15 17 18 19 20 22 23
15 15 16 15 15 12 10 10 7 6 4 3 2 3 3 2 2 2 1 2 1 1 2 3 6 6 8 8 8 8 10 11 12 13 15 17 18 19
14 14 14 12 13 11 8 8 8 5 3 3 3 2 3 3 4 3 2 1 1 1 1 1 1 2 3 5 5 6 7 8 10 12 13 14 14 16
13 8 6 7 9 13 12 11 12 11 7 4 3 4 5 3 3 4 4 3 2 2 2 2 2 2 2 2 5 6 9 10 10 10 12 13 14 16
8 7 6 4 6 7 8 9 9 10 7 8 6 6 5 7 7 4 4 3 3 3 3 0 1 2 2 3 5 9 8 8 10 11 12 13 14 15
10 11 11 10 9 9 9 7 6 5 6 5 5 5 4 7 6 4 5 4 3 1 2 2 1 3 1 2 7 11 10 11 13 13 12 14 14 16
7 8 9 9 13 14 10 10 7 4 5 9 11 14 15 14 11 7 3 4 1 2 2 3 2 2 1 1 2 10 11 11 15 13 12 13 16 12
5 6 10 12 18 19 12 12 11 9 10 7 6 11 12 12 12 3 6 5 4 1 3 3 1 1 3 1 2 2 3 11 15 14 13 16 16 4
7 6 5 15 20 20 16 12 11 13 13 8 7 6 6 6 4 2 3 4 3 2 4 4 3 1 2 2 2 2 0 3 3 3 10 9 14 13
9 5 6 17 19 19 14 16 20 16 8 8 7 6 7 6 6 4 4 3 2 4 5 4 3 3 3 2 2 2 1 3 1 2 2 7 12 12
5 9 14 17 19 15 16 20 19 9 9 9 8 7 7 6 6 5 4 4 4 4 4 4 3 3 3 2 3 3 3 3 1 2 3 4 3 3
12 10 12 12 12 10 11 14 8 9 9 8 8 6 6 6 4 3 3 3 2 1 2 4 5 5 3 3 4 4 3 1 1 2 3 3 3 3
11 9 9 8 8 8 8 9 7 7 7 7 8 8 7 6 4 2 2 2 3 3 1 2 1 3 1 4 2 3 1 1 2 3 1 3 3 4
9 11 12 13 12 11 10 10 8 9 7 8 8 8 7 7 6 2 2 3 3 3 3 0 2 3 4 4 4 1 1 1 2 3 2 2 5 5
11 12 14 13 12 12 11 11 10 10 10 7 8 8 7 6 7 3 3 3 2 2 1 1 2 3 3 2 3 1 2 1 2 3 2 2 5 8
12 11 13 13 12 12 12 10 9 9 10 9 8 7 7 7 6 6 5 3 3 2 1 1 2 2 4 4 2 3 9 1 1 2 3 2 6 14
13 13 12 12 12 11 11 10 11 10 9 9 8 8 7 6 5 5 5 5 5 2 2 2 2 1 1 3 2 4 4 8 6 2 3 4 3 3
9 10 10 10 10 11 10 10 9 9 8 7 7 7 6 6 7 7 6 5 3 3 2 1 2 2 2 3 3 3 3 3 7 9 8 7 3 4
7 8 8 9 9 9 10 9 9 8 7 7 6 6 6 6 6 5 5 5 5 3 2 1 1 2 0 2 3 2 2 3 2 3 3 10 11 14
Wind_Direction
221 219 217 220 215 222 222 222 234 252 234 226 225 220 188 164 172 189 210 206 239 256 274 274 274 270 264 267 269 269 267 270 271 276 278 278 278 280
219 217 218 223 224 219 222 224 222 238 257 193 209 165 152 153 158 190 209 227 252 274 283 282 282 276 272 273 274 277 279 279 285 287 286 284 283 283
219 218 221 220 220 217 218 224 223 225 246 225 163 139 179 154 160 132 95 227 250 267 270 282 287 284 281 276 280 284 286 287 288 287 288 288 287 287
220 216 222 217 220 221 214 217 222 212 234 238 168 166 204 150 128 152 202 221 204 245 257 267 271 275 281 281 278 278 280 282 283 287 292 293 291 292
218 216 222 218 219 219 212 218 210 186 203 164 172 101 119 122 116 131 174 282 240 223 245 265 266 264 266 271 278 284 288 294 295 295 295 296 296 298
217 214 217 216 219 211 206 209 195 187 166 145 134 151 140 130 125 150 150 266 291 346 224 230 266 279 284 291 300 307 307 309 308 307 306 307 309 312
218 217 218 212 207 199 195 200 178 162 147 164 137 136 149 161 182 154 140 216 327 174 50 27 336 337 326 326 311 304 316 333 340 338 330 328 329 328
220 211 193 185 198 194 191 181 181 177 178 152 162 179 173 162 142 159 144 158 171 307 83 315 52 317 316 347 321 357 34 29 13 358 350 343 339 335
206 185 186 182 175 163 151 160 164 168 163 174 165 183 164 171 144 151 170 150 165 150 110 223 22 291 251 325 78 72 25 7 4 352 354 352 348 344
192 191 193 182 182 164 151 145 140 143 157 170 167 159 145 142 150 162 154 111 70 342 115 153 247 255 322 303 120 22 23 10 358 350 354 354 351 347
192 185 184 178 170 164 155 154 140 126 121 121 126 130 137 144 149 130 144 120 111 204 202 132 262 266 334 278 265 6 0 356 348 343 349 360 351 359
183 183 183 177 168 172 166 161 159 158 137 122 127 137 139 150 157 150 154 147 128 115 185 141 168 153 334 272 312 321 353 346 343 346 358 349 350 354
190 186 185 177 176 177 169 173 173 155 155 144 139 131 136 137 138 153 156 135 134 163 184 128 162 183 144 282 293 299 75 312 324 332 339 342 345 341
193 179 178 178 178 174 165 170 159 151 148 151 152 151 154 160 173 160 140 131 130 158 169 152 165 175 163 186 236 297 307 285 279 277 289 306 321 331
157 173 172 175 177 173 173 170 157 156 158 161 167 166 169 163 140 135 157 170 174 201 185 175 175 184 162 174 215 231 313 290 194 284 288 278 274 271
156 165 169 173 170 162 167 160 165 165 167 168 162 149 137 147 156 151 150 159 113 268 245 196 198 170 190 193 172 252 215 253 300 276 263 273 279 278
144 151 163 164 163 169 172 163 164 159 161 159 150 150 151 151 153 137 132 126 148 176 222 345 21 160 219 176 268 220 238 254 244 277 294 270 264 308
164 174 176 172 172 173 173 161 161 166 164 161 152 154 158 162 162 142 128 148 162 179 143 184 21 33 10 322 204 151 50 222 274 286 292 300 310 325
192 186 181 181 174 171 172 173 168 165 150 160 154 152 154 167 160 153 153 147 123 121 133 138 89 111 92 216 292 51 144 260 289 307 271 266 293 311
193 187 182 179 176 171 169 171 156 154 153 152 150 147 158 164 157 162 168 148 131 134 125 59 100 114 144 195 235 269 328 158 205 267 282 273 269 291
189 185 181 179 174 168 162 155 155 153 155 151 152 153 154 154 154 152 149 150 138 138 145 156 144 75 146 65 14 304 307 325 323 237 268 298 278 291
188 176 166 163 158 149 144 147 139 143 151 154 154 147 150 153 158 159 159 155 158 144 133 129 5 48 73 148 215 243 281 307 308 309 323 324 214 289
160 144 139 135 135 134 137 139 141 143 149 148 149 148 151 155 150 150 145 141 137 134 140 128 25 53 158 168 182 252 273 273 283 319 301 322 320 313